Location: Bottom School (historical)
(37.9078°N, 89.3593°W)
Time: 12:43:30
(UTC+00:00)

UNISAT 6 - Visible Passes

Search period start: 02 April 2023 00:00
Search period end: 12 April 2023 00:00
Orbit: 602 x 679 km, 97.7° (Epoch: 01 April)

Date Brightness Start Highest point End Pass type
(mag) Time Alt. Az. Time Alt. Az. Time Alt. Az.
02 Apr ? 10:27:51 10° SSE 10:32:08 53° ENE 10:36:32 10° N visible
03 Apr ? 10:51:25 10° S 10:55:50 83° WSW 11:00:23 10° NNW visible
04 Apr ? 09:40:41 10° ESE 09:43:28 17° ENE 09:46:19 10° NNE visible
05 Apr ? 00:44:46 10° NNW 00:47:50 18° WNW 00:50:53 10° WSW visible
05 Apr ? 10:03:10 10° SE 10:06:59 29° ENE 10:10:52 10° N visible
06 Apr ? 10:26:15 10° SSE 10:30:34 52° ENE 10:35:00 10° N visible
07 Apr ? 10:49:47 10° SSE 10:54:15 85° W 10:58:50 10° NNW visible
08 Apr ? 09:39:04 10° ESE 09:41:51 16° ENE 09:44:41 10° NNE visible
09 Apr ? 10:01:30 10° SE 10:05:20 28° ENE 10:09:15 10° NNE visible
10 Apr ? 01:09:16 10° WNW 01:09:37 10° WNW 01:09:58 10° WNW visible
10 Apr ? 10:24:32 10° SSE 10:28:54 50° ENE 10:33:21 10° N visible
11 Apr ? 10:48:01 10° SSE 10:52:31 87° WSW 10:57:09 10° NNW visible
